[[{"header":{"parameterUnit":"m.s-1","parameterCategory":1,"la1":30.2991,"la2":30.254,"lo1":-89.0895,"lo2":-89.0444,"dy":0.0017,"dx":0.0017,"nx":28,"ny":28,"refTime":"2025-01-23T09:00:00:Z","depth":0,"parameterNumber":2,"parameterNumberName":"U-component_of_WINDS"},"data":[0,0,0,0,0,0,0,0,0,0,0,0,0,0,0,0,0,0,0,0,0,0,0,0,0,0,0,0,0,0,0,0,0,0,0,0,0,0,0,0,0,0,0,0,0,0,0,0,0,0,0,0,0,0,0,0,0,0,2.4925,2.4924,0,2.4877,2.4877,2.4876,2.48,2.4799,2.4797,2.4796,2.4746,2.4746,2.4746,0,0,0,0,0,0,0,0,0,0,0,0,0,2.495,2.4949,2.4925,2.4924,2.4924,2.4877,2.4877,2.4876,2.48,2.4799,2.4797,2.4795,2.4746,2.4746,2.4746,0,0,0,0,0,0,0,0,0,0,0,0,0,2.4924,2.4949,2.4925,2.488,2.4876,2.4877,2.4877,2.4876,2.4801,2.4799,2.4797,2.4795,2.4746,2.4746,2.4746,2.4786,0,0,2.4745,2.4745,0,0,0,0,0,0,0,0,2.4926,2.4923,2.4888,2.4883,2.4878,2.4842,2.4867,2.4846,2.4801,2.4829,2.4796,2.4794,2.478,2.4777,2.4772,2.4784,2.4782,2.4745,2.4745,2.4745,2.4745,0,0,0,0,0,0,0,2.4927,2.4925,2.4906,2.4887,2.4882,2.4862,2.4857,2.4862,2.4817,2.4827,2.4821,2.4817,2.4777,2.4772,2.477,2.4781,2.4745,2.4745,2.4745,2.4745,2.4824,2.4827,0,0,0,0,0,0,2.4936,2.4927,2.4907,2.4904,2.4897,2.4864,2.4857,2.4856,2.4816,2.4808,2.4818,2.4813,2.4774,2.4771,2.4768,2.4813,2.4745,2.4745,2.4745,2.4822,2.4825,2.4827,0,0,0,0,0,0,2.4937,2.4935,2.4909,2.4914,2.4909,2.4866,2.4865,2.4856,2.4852,2.481,2.4801,2.4822,2.4772,2.4768,2.4783,2.4811,2.4745,2.4745,2.482,2.4823,2.4826,2.4904,0,0,0,0,0,0,2.4938,2.4936,2.4951,2.4915,2.4909,2.4925,2.4867,2.4857,2.4852,2.4845,2.4812,2.4804,2.477,2.4783,2.4783,2.4809,2.4745,2.4817,2.4821,2.4825,2.4899,2.491,2.4919,0,0,0,0,0,2.4939,2.4974,2.4952,2.495,2.4928,2.4927,2.4923,2.4884,2.4855,2.4869,2.4843,2.4805,2.4808,2.4785,2.4784,2.4811,2.4815,2.482,2.4825,2.4895,2.4908,2.4919,0,0,0,0,0,0,2.5014,2.4969,2.4944,2.4969,2.4952,2.4914,2.4931,2.4899,2.489,2.4884,2.4835,2.4828,2.4849,2.4831,2.4807,2.4849,2.4806,2.4811,2.4859,2.4871,2.4881,2.4885,2.4745,0,0,0,0,0,2.5034,2.5037,2.4997,2.5023,2.5016,2.4976,2.4974,2.4945,2.4926,2.4918,2.4892,2.4875,2.4872,2.4871,2.4865,2.4896,2.4888,2.4914,2.4924,2.4933,2.4937,2.4953,2.4964,2.4843,2.4843,2.4843,0,0,2.5074,2.505,2.5055,2.5038,2.5022,2.5026,2.497,2.4977,2.498,2.4919,2.4931,2.4912,2.4889,2.4912,2.4921,2.4898,2.4969,2.4939,2.4946,2.4946,2.4959,2.497,2.4981,2.4846,2.4846,2.4845,0,0,2.515,2.5132,2.5151,2.5137,2.5113,2.5086,2.5091,2.5058,2.5043,2.5054,2.5009,2.5011,2.5007,2.4993,2.4985,2.5056,2.5021,2.5056,2.5108,2.5124,2.5133,2.5141,2.5167,2.5176,2.5061,2.5061,2.5061,0,2.5202,2.5208,2.5165,2.5176,2.5169,2.5115,2.5135,2.5123,2.5099,2.5096,2.5071,2.5065,2.5045,2.5064,2.5082,2.5078,2.5081,2.5059,2.5135,2.5143,2.515,2.5174,2.5183,2.5065,2.5065,2.5064,2.5064,0,2.5274,2.5278,2.5297,2.5276,2.5272,2.5287,2.5247,2.5248,2.522,2.5195,2.5208,2.5183,2.5172,2.5174,2.5146,2.519,2.5176,2.5144,2.51,2.5167,2.5188,2.5197,2.5072,2.507,2.5069,2.5068,0,0,2.5395,2.5351,2.5358,2.5348,2.5319,2.5321,2.5334,2.5324,2.5326,2.5311,2.532,2.5318,2.5289,2.528,2.525,2.5264,2.5322,2.523,2.5228,2.5248,2.5368,2.5392,2.5403,2.5299,2.5301,2.5302,2.537,0,2.5464,2.5483,2.5446,2.5474,2.5478,2.5427,2.5438,2.5421,2.5398,2.5398,2.5373,2.5372,2.5333,2.5328,2.5339,2.5313,2.5345,2.5307,2.5306,2.5307,2.5313,2.5414,2.5439,2.5505,2.5378,2.5379,2.538,0,2.5548,2.5538,2.5567,2.5536,2.5536,2.5547,2.5535,2.5535,2.5515,2.5497,2.5489,2.5454,2.5463,2.5422,2.5434,2.5409,2.5407,2.5394,2.5395,2.5393,2.5347,2.5415,2.5525,2.5534,2.5393,2.5392,2.5391,0,2.5633,2.5627,2.5644,2.5637,2.5601,2.561,2.5596,2.5573,2.557,2.5559,2.5556,2.5547,2.5542,2.5535,2.5499,2.5472,2.5516,2.5471,2.5502,2.5503,2.5513,2.5512,2.5623,2.5512,2.5512,2.5512,2.5512,0,2.5715,2.5734,2.5682,2.5692,2.5712,2.5669,2.569,2.5671,2.5652,2.5657,2.5612,2.5618,2.557,2.557,2.5542,2.5556,2.5555,2.554,2.5533,2.5544,2.5546,2.5541,2.5536,2.5514,2.5514,2.5513,2.5513,0,2.5813,2.5779,2.5793,2.5759,2.5751,2.5767,2.5738,2.5745,2.5721,2.5728,2.5727,2.5688,2.5686,2.5649,2.5639,2.562,2.5646,2.563,2.5653,2.5648,2.568,2.5678,2.5792,2.5805,2.5686,2.5687,2.5688,0,2.5867,2.5881,2.5848,2.5849,2.5837,2.5838,2.5834,2.5793,2.5791,2.5769,2.578,2.5775,2.5768,2.5767,2.5738,2.573,2.5713,2.5754,2.5711,2.5723,2.5713,2.5713,2.5714,2.5762,2.5764,2.5765,2.5766,0,2.5967,2.5949,2.5946,2.5937,2.5934,2.5925,2.5912,2.5915,2.587,2.587,2.5868,2.5863,2.5853,2.5848,2.5836,2.582,2.5786,2.578,2.5786,2.5798,2.5811,2.5804,2.5677,2.5777,2.5776,2.5775,2.5775,2.5774,2.6044,2.6054,2.6033,2.6031,2.6017,2.6007,2.6013,2.5989,2.5987,2.5976,2.5952,2.5953,2.5933,2.5912,2.59,2.59,2.5879,2.5889,2.5891,2.5894,2.5901,2.5812,2.5898,2.5898,2.5897,2.5897,2.5897,0,2.6141,2.6125,2.6123,2.6108,2.6107,2.6075,2.606,2.6061,2.6063,2.6047,2.6042,2.604,2.6035,2.6005,2.5997,2.6003,2.5987,2.6002,2.6001,2.5998,2.592,2.5915,2.6016,2.6016,2.6016,2.6016,2.6015,2.6015,2.6191,2.6206,2.6187,2.6195,2.6178,2.618,2.6174,2.6165,2.6152,2.6151,2.6147,2.6128,2.6107,2.6097,2.6091,2.6082,2.6081,2.6102,2.6088,2.6015,2.6004,2.5993,2.5988,2.6102,2.6102,2.6166,2.6166,2.6167]},{"header":{"parameterUnit":"m.s-1","parameterCategory":1,"la1":30.2991,"la2":30.254,"lo1":-89.0895,"lo2":-89.0444,"dy":0.0017,"dx":0.0017,"nx":28,"ny":28,"refTime":"2025-01-23T09:00:00:Z","depth":0,"parameterNumber":3,"parameterNumberName":"V-component_of_WINDS"},"data":[0,0,0,0,0,0,0,0,0,0,0,0,0,0,0,0,0,0,0,0,0,0,0,0,0,0,0,0,0,0,0,0,0,0,0,0,0,0,0,0,0,0,0,0,0,0,0,0,0,0,0,0,0,0,0,0,0,0,-1.8512,-1.8512,0,-1.8583,-1.8584,-1.8585,-1.8548,-1.8546,-1.8544,-1.8543,-1.8616,-1.862,-1.8623,0,0,0,0,0,0,0,0,0,0,0,0,0,-1.8346,-1.8349,-1.8512,-1.8512,-1.8513,-1.8583,-1.8584,-1.8585,-1.8548,-1.8546,-1.8544,-1.8542,-1.8615,-1.8619,-1.8624,0,0,0,0,0,0,0,0,0,0,0,0,0,-1.8417,-1.835,-1.8511,-1.8504,-1.8504,-1.8583,-1.8584,-1.8585,-1.8549,-1.8546,-1.8543,-1.8541,-1.8613,-1.8619,-1.8624,-1.8716,0,0,-1.8641,-1.8644,0,0,0,0,0,0,0,0,-1.8413,-1.8424,-1.8504,-1.8504,-1.8504,-1.8554,-1.8552,-1.8629,-1.855,-1.8532,-1.8542,-1.8539,-1.8598,-1.8604,-1.8624,-1.8719,-1.8722,-1.8642,-1.8645,-1.8648,-1.8649,0,0,0,0,0,0,0,-1.8409,-1.842,-1.854,-1.8505,-1.8505,-1.8497,-1.8504,-1.8567,-1.858,-1.8533,-1.8531,-1.8539,-1.8597,-1.8619,-1.8626,-1.8723,-1.8642,-1.8647,-1.865,-1.8652,-1.89,-1.8903,0,0,0,0,0,0,-1.8404,-1.8416,-1.8538,-1.8542,-1.8451,-1.8502,-1.851,-1.8541,-1.8579,-1.8582,-1.8542,-1.8538,-1.8611,-1.8619,-1.8628,-1.8739,-1.8648,-1.8653,-1.8656,-1.8896,-1.89,-1.8904,0,0,0,0,0,0,-1.84,-1.8415,-1.8535,-1.8479,-1.8493,-1.8508,-1.8543,-1.8544,-1.8565,-1.8586,-1.8588,-1.8561,-1.8609,-1.862,-1.8695,-1.8741,-1.8655,-1.8661,-1.8893,-1.8898,-1.8902,-1.8962,0,0,0,0,0,0,-1.8396,-1.8414,-1.8448,-1.848,-1.8496,-1.86,-1.8546,-1.8547,-1.8575,-1.857,-1.8604,-1.8607,-1.8607,-1.8687,-1.87,-1.8747,-1.8665,-1.8889,-1.8895,-1.8901,-1.8956,-1.8968,-1.8978,0,0,0,0,0,-1.839,-1.8461,-1.845,-1.8465,-1.8539,-1.8602,-1.8612,-1.861,-1.8578,-1.8614,-1.8627,-1.8606,-1.8734,-1.8695,-1.871,-1.8759,-1.8886,-1.8893,-1.89,-1.895,-1.8965,-1.8978,0,0,0,0,0,0,-1.8435,-1.8465,-1.8453,-1.8537,-1.8567,-1.8596,-1.864,-1.8626,-1.8666,-1.866,-1.8656,-1.8665,-1.8743,-1.8758,-1.8714,-1.8851,-1.8805,-1.8816,-1.8838,-1.8852,-1.8864,-1.8859,-1.867,0,0,0,0,0,-1.8454,-1.8502,-1.8527,-1.8598,-1.8614,-1.8625,-1.8652,-1.8649,-1.868,-1.8693,-1.8712,-1.8744,-1.8791,-1.8822,-1.8867,-1.8957,-1.8966,-1.8999,-1.901,-1.902,-1.9029,-1.9081,-1.9097,-1.8928,-1.8928,-1.8927,0,0,-1.8495,-1.8518,-1.8548,-1.8608,-1.8631,-1.8683,-1.8636,-1.8691,-1.873,-1.8701,-1.8774,-1.8789,-1.8824,-1.8908,-1.8946,-1.8923,-1.9078,-1.9029,-1.9036,-1.9041,-1.909,-1.9106,-1.912,-1.8933,-1.8932,-1.8931,0,0,-1.8596,-1.8618,-1.8681,-1.8706,-1.8742,-1.8748,-1.8764,-1.8795,-1.8805,-1.8877,-1.8858,-1.8903,-1.8984,-1.9011,-1.9035,-1.9149,-1.9133,-1.9164,-1.9224,-1.9274,-1.9288,-1.93,-1.9342,-1.9357,-1.9173,-1.9173,-1.9173,0,-1.8643,-1.8719,-1.8715,-1.8773,-1.8801,-1.8778,-1.8843,-1.8867,-1.8916,-1.8936,-1.891,-1.9013,-1.9035,-1.9126,-1.9154,-1.9174,-1.9193,-1.916,-1.9286,-1.9298,-1.9309,-1.935,-1.9366,-1.9177,-1.9177,-1.9176,-1.9176,0,-1.8775,-1.8828,-1.8875,-1.8924,-1.8956,-1.9017,-1.9024,-1.9058,-1.9052,-1.9062,-1.9137,-1.9163,-1.9214,-1.9235,-1.9229,-1.9326,-1.9311,-1.9286,-1.924,-1.9329,-1.9367,-1.9383,-1.9182,-1.9181,-1.918,-1.9179,0,0,-1.8906,-1.8953,-1.8971,-1.8994,-1.9033,-1.9074,-1.9135,-1.9185,-1.9215,-1.925,-1.9302,-1.9372,-1.935,-1.9377,-1.9374,-1.9418,-1.951,-1.9388,-1.9389,-1.9411,-1.9621,-1.9641,-1.9659,-1.9499,-1.9501,-1.9504,-1.9619,0,-1.9011,-1.9118,-1.9117,-1.9216,-1.9267,-1.9246,-1.93,-1.933,-1.9342,-1.9387,-1.9399,-1.945,-1.9415,-1.9432,-1.9474,-1.949,-1.9552,-1.9481,-1.9549,-1.9551,-1.9542,-1.9679,-1.97,-1.9808,-1.9634,-1.9636,-1.9638,0,-1.9148,-1.9189,-1.9293,-1.9327,-1.9348,-1.9396,-1.9443,-1.9486,-1.9521,-1.9526,-1.9558,-1.9549,-1.9612,-1.9564,-1.9652,-1.9604,-1.9632,-1.9644,-1.9648,-1.9655,-1.9601,-1.9692,-1.9841,-1.9858,-1.9661,-1.9659,-1.9658,0,-1.9236,-1.9317,-1.939,-1.941,-1.9451,-1.9485,-1.9504,-1.9536,-1.9567,-1.9608,-1.9628,-1.9676,-1.9703,-1.9741,-1.9746,-1.9709,-1.9836,-1.9787,-1.9843,-1.9843,-1.9872,-1.987,-2.0029,-1.9886,-1.9886,-1.9886,-1.9886,0,-1.9355,-1.942,-1.943,-1.9476,-1.9549,-1.9548,-1.962,-1.9636,-1.9665,-1.9714,-1.9699,-1.9746,-1.9748,-1.9796,-1.98,-1.9874,-1.9886,-1.9893,-1.9894,-1.9896,-1.9895,-1.9915,-1.9908,-1.989,-1.9889,-1.9888,-1.9888,0,-1.9466,-1.9475,-1.9554,-1.9587,-1.9597,-1.9649,-1.9678,-1.9722,-1.9732,-1.9794,-1.9809,-1.9826,-1.9882,-1.989,-1.9955,-1.9958,-2.0048,-2.0039,-2.0036,-2.0036,-2.0093,-2.0088,-2.0272,-2.0297,-2.0136,-2.0137,-2.0138,0,-1.9542,-1.9592,-1.963,-1.9662,-1.9683,-1.9734,-1.9766,-1.9768,-1.9802,-1.9847,-1.9886,-1.994,-1.9984,-2.0075,-2.0093,-2.0144,-2.0138,-2.0199,-2.0145,-2.0147,-2.0142,-2.0139,-2.0145,-2.021,-2.0211,-2.0213,-2.0214,0,-1.9677,-1.9679,-1.9725,-1.9774,-1.9813,-1.9851,-1.9887,-1.9915,-1.9921,-1.996,-2.0018,-2.0052,-2.012,-2.0175,-2.0225,-2.0245,-2.0232,-2.023,-2.0247,-2.025,-2.0247,-2.0252,-2.0066,-2.0226,-2.0225,-2.0224,-2.0224,-2.0223,-1.9774,-1.9818,-1.9853,-1.9906,-1.9933,-1.9968,-2.0012,-2.0028,-2.0076,-2.0132,-2.013,-2.0194,-2.0229,-2.0296,-2.032,-2.037,-2.035,-2.0373,-2.0379,-2.0386,-2.0392,-2.0238,-2.0379,-2.0379,-2.0378,-2.0378,-2.0378,0,-1.991,-1.9932,-1.998,-2.0032,-2.0074,-2.0057,-2.0097,-2.0134,-2.019,-2.0224,-2.0268,-2.0336,-2.039,-2.0413,-2.0466,-2.0502,-2.0498,-2.0517,-2.0515,-2.052,-2.0406,-2.0387,-2.052,-2.052,-2.052,-2.052,-2.052,-2.052,-1.9986,-2.0061,-2.0068,-2.0157,-2.0178,-2.0241,-2.0265,-2.0298,-2.0326,-2.0402,-2.0447,-2.0461,-2.0492,-2.0548,-2.0597,-2.0603,-2.0624,-2.0646,-2.0649,-2.0542,-2.0528,-2.0514,-2.0497,-2.0651,-2.0651,-2.076,-2.0761,-2.0762]}]]